Content
SEND FEEDBACK

Daily
Averages
Monthly
Summary
United States of America

ASHEVILLE, NORTH CAROLINA


Home > North America > United States > North Carolina
Elevation: 2240 feet     Latitude: 35 36N     Longitude: 082 32W

WEATHER
 
SELECT A DAY
Number of Records: 225,823;   Date Range: 1/1/95 - 7/29/14
 
SHARE

PRINT THIS DATA

[ ← Previous Day ]
WEATHER ALMANAC - MARCH 1, 2013
[ Next Day → ]
[ °C ]   °F
Weather ElementAverageHighLow
Temperature34.8 °F37.9 °F (2:54 pm)30.2 °F (2:54 am)
Dewpoint26.3 °F28 °F (11:54 pm)24.1 °F (4:54 pm)
Humidity71.4 %86 % (5:54 am)57 % (4:54 pm)
Barometer29.90 in29.93 in (8:54 am)29.86 in (2:54 am)
Wind Speed11 mph15 mph (4:54 pm)
Wind Gust24.2 mph (1:54 am)
Weather ElementAverage
Visibility10 mi
Wind DirectionNNW (346.7 °)

Weather ElementTotal
Precipitation---
Heating Degree Days31 (Base 65)
Averaged from 27 records on March 1, 2013
WEATHER CONDITIONS BREAKOUT
WIND DIRECTION BREAKOUT
WEATHER BY HOUR - MARCH 1, 2013
[ °C ]   °F
Local TimeTemperatureDewpointHumidityBarometerVisibilityWind DirectionWind SpeedGust SpeedPrecipitationEventsConditions
1:54 AM32.0 °F25.0 °F75 %29.89 in10.0 miNorth (350°)11.5 mph24.2 mphOvercast
2:54 AM30.2 °F24.8 °F80 %29.86 in10.0 miNorth (350°)10.4 mph20.7 mphOvercast
3:54 AM30.9 °F26.1 °F82 %29.87 in10.0 miNorth (350°)12.7 mph20.7 mphOvercast
4:54 AM30.9 °F26.1 °F82 %29.89 in10.0 miNorth (350°)8.1 mphOvercast
5:54 AM30.2 °F26.6 °F86 %29.88 in10.0 miNNW (330°)12.7 mphOvercast
6:54 AM30.9 °F26.1 °F82 %29.90 in10.0 miNNW (340°)9.2 mphOvercast
7:54 AM32.0 °F27.0 °F82 %29.92 in10.0 miNNW (340°)10.4 mphOvercast
8:54 AM33.1 °F27.0 °F78 %29.93 in10.0 miNorth (350°)6.9 mphOvercast
9:54 AM33.8 °F26.6 °F75 %29.90 in10.0 miNNW (340°)12.7 mphOvercast
10:54 AM35.6 °F26.6 °F70 %29.90 in10.0 miNorth (350°)9.2 mphOvercast
11:16 AM35.6 °F26.6 °F70 %29.90 in10.0 miNorth (360°)8.1 mphOvercast
11:46 AM35.6 °F26.6 °F70 %29.91 in10.0 miNorth (350°)10.4 mphOvercast
11:54 AM37.4 °F26.6 °F65 %29.90 in10.0 miNorth (360°)6.9 mphOvercast
12:16 PM37.4 °F26.6 °F65 %29.90 in10.0 miNNW (340°)10.4 mph17.3 mphOvercast
12:54 PM37.4 °F26.6 °F65 %29.89 in10.0 miNNW (340°)12.7 mphOvercast
1:54 PM37.4 °F26.6 °F65 %29.87 in10.0 miNNW (340°)10.4 mphOvercast
2:54 PM37.9 °F26.1 °F62 %29.88 in10.0 miNorth (350°)12.7 mphOvercast
3:10 PM37.4 °F26.6 °F65 %29.86 in10.0 miNNW (340°)13.8 mphOvercast
3:54 PM37.9 °F26.1 °F62 %29.88 in10.0 miNorth (350°)11.5 mphOvercast
4:54 PM37.9 °F24.1 °F57 %29.88 in10.0 miNorth (350°)15.0 mph20.7 mphOvercast
5:54 PM37.0 °F25.0 °F62 %29.90 in10.0 miNNW (340°)13.8 mphOvercast
6:54 PM36.0 °F25.0 °F64 %29.90 in10.0 miNorth (360°)15.0 mph21.9 mphOvercast
7:54 PM36.0 °F26.1 °F67 %29.92 in10.0 miNorth (350°)10.4 mphOvercast
8:54 PM35.1 °F27.0 °F72 %29.91 in10.0 miNorth (360°)9.2 mphOvercast
9:54 PM35.1 °F27.0 °F72 %29.92 in10.0 miNNW (330°)11.5 mphOvercast
10:54 PM34.0 °F27.0 °F75 %29.92 in9.0 miNNW (340°)10.4 mph0.00 inSnowLight Snow
11:54 PM34.0 °F28.0 °F79 %29.89 in10.0 miNorth (350°)11.5 mph0.00 inOvercast
Hourly data recorded from KAVL, located miles away from Asheville, North Carolina







STORIES FROM OUR PARTNERS